NSS-10 (AMC-12)

Last updated on Sun May 19 2024 00:02:37 GMT+0000 (Coordinated Universal Time)

1 28526U 05003A 24139.35535537 -.00000238 00000+0 00000+0 0 9998 2 28526 4.5418 79.5261 0003079 328.0915 279.3855 1.00272700 45539
UTC large
Height (km)
Speed (km/s)
/
Latitude / Longitude
Inclination (degrees)
Orbital Period (minutes)
Azimuth
Elevation
Range (km)
Doppler Factor

Next 0 passes for location: London (51.5072 / 0.1276)

Sorry there are no passes over London.
NSS-10 (AMC-12)